Location: Newark
(31.5350°N, 35.0986°E)
Time: 08:12:52
(UTC+00:00)

Courier 1B Rocket - Visible Passes

Search period start: 19 September 2019 00:00
Search period end: 29 September 2019 00:00
Orbit: 920 x 1202 km, 28.2° (Epoch: 18 September)

Date Brightness Start Highest point End Pass type
(mag) Time Alt. Az. Time Alt. Az. Time Alt. Az.
19 Sep 5.3 15:57:35 10° W 16:04:29 65° S 16:10:54 10° ESE visible
19 Sep 5.7 17:51:32 10° W 17:57:38 40° SSW 17:57:41 40° SSW visible
20 Sep 5.5 16:50:09 10° W 16:56:44 50° SSW 17:00:26 24° SE visible
20 Sep 7.1 18:44:48 10° WSW 18:46:48 17° WSW 18:46:48 17° WSW visible
21 Sep 6.1 17:43:02 10° W 17:48:46 30° SSW 17:49:36 29° S visible
22 Sep 5.9 16:41:29 10° W 16:47:54 40° SSW 16:52:27 17° SE visible
22 Sep 7.2 18:37:11 10° WSW 18:38:49 13° SW 18:38:49 13° SW visible
23 Sep 6.6 17:34:48 10° WSW 17:39:51 22° SSW 17:41:43 20° S visible
24 Sep 6.4 16:32:57 10° W 16:39:00 31° SSW 16:44:39 10° SE visible
25 Sep 7.1 17:27:06 10° WSW 17:30:51 15° SSW 17:34:03 11° S visible
26 Sep 6.9 16:24:39 10° WSW 16:30:01 23° SSW 16:35:09 10° SSE visible
28 Sep 7.3 16:16:52 10° WSW 16:20:59 16° SSW 16:24:59 10° S visible
